Tracking 17844 objects as of 24-August-2016
HD Live streaming from Space Station
objects crossing your sky now

ABS 3

Track ABS 3 now!
ABS 3 is classified as:


NORAD ID: 24901
Int'l Code: 1997-042A
Perigee: 35,849.2 km
Apogee: 35,891.0 km
Inclination: 4.3 °
Period: 1,440.0 minutes
Semi major axis: 42241 km
RCS: 10 m2 (large)
Launch date: August 19, 1997
Source: People's Republic of China (PRC)
Launch site: Xichang Space Center, China (XSC)

Most powerful telecommunications satellite in service in the Asia-Pacific region; 30 C-band, 24 Ku-band transponders; 190 high fidelity channels and 50,000 simultaneous telephone links.
Your satellite tracking list
Your tracking list is empty





NASA's NSSDC Master Catalog

Two Line Element Set (TLE):
1 24901U 97042A   16237.15514205  .00000026  00000-0  00000+0 0  9997
2 24901   4.3403  65.0043 0004953  90.0436 289.8654  1.00413914 69597
Source of the keplerian elements: AFSPC

N2YO: 485